Regional Weather Roundup
Issued by NWS Newport/Morehead, NC

Current Version | Previous Version | Text Only | Print | Product List | Glossary On
Versions: 1 2 3 4 5 6 7 8 9 10 11 12 13 14 15 16 17 18 19 20 21 22 23 24 25 26 27 28 29 30 31 32 33 34 35 36 37 38 39 40 41 42 43 44 45 46 47 48 49 50
000
ASUS42 KMHX 221010
RWRMHX
WEATHER ROUNDUP FOR EASTERN NORTH CAROLINA
NATIONAL WEATHER SERVICE NEWPORT/MOREHEAD CITY NC
600 AM EDT TUE APR 22 2014

NOTE: "FAIR" INDICATES FEW OR NO CLOUDS BELOW 12,000 FEET
WITH NO SIGNIFICANT WEATHER AND/OR OBSTRUCTIONS TO VISIBILITY

NCZ015>017-031-032-045>047-102-103-221100-
NORTH COAST

CITY           SKY/WX    TMP DP  RH WIND       PRES   REMARKS
EDENTON        MOCLDY    45  44  95 CALM      29.85S
ELIZABETH CITY PTCLDY    44  43  96 SW3       29.85S
KITTY HAWK     MOSUNNY   46  46  98 CALM      29.83S FOG
MANTEO         PTCLDY    42  42  99 CALM      29.85S

$$

NCZ045>047-081-094-103-104-221100-
CENTRAL COAST

CITY           SKY/WX    TMP DP  RH WIND       PRES   REMARKS
FRISCO         PTCLDY    48  48 100 N3        29.85S FOG
SWANQUARTER      N/A     46 N/A N/A CALM      29.82S

$$

NCZ095-097-098-100-101-221100-
SOUTHERN COAST

CITY           SKY/WX    TMP DP  RH WIND       PRES   REMARKS
BEAUFORT       FOG       46  46 100 CALM      29.87R VSB 1/2
CEDAR ISLAND     N/A     48 N/A N/A W1        29.88S
JACKSONVILLE   CLEAR     48  48 100 S3        29.87S
NEWPORT          N/A     43  43 100 CALM        N/A
PINEY ISLAND   MOSUNNY   53  52  96 SW6       29.86S FOG
WILMINGTON     CLEAR     53  50  89 CALM      29.87F


$$

NCZ011>013-027>030-043-044-078>080-089-090>093-098-221100-
COASTAL PLAIN

CITY           SKY/WX    TMP DP  RH WIND       PRES   REMARKS
AHOSKIE        MOCLDY    42  41  96 CALM      29.84F
CLINTON        CLEAR     47  47 100 CALM      29.86S
ELIZABETHTOWN  CLEAR     49  47  96 CALM      29.86S
GOLDSBORO      CLEAR     45  44  98 E5        29.83F
GREENVILLE     CLEAR     48  48 100 CALM      29.88S
HAVELOCK       PTCLDY    47  44  90 SW3       29.88S FOG
KENANSVILLE    CLEAR     45  44  97 CALM      29.86F
KINSTON        CLEAR     49  48  97 S3        29.86F
NEW BERN       CLEAR     45  42  89 CALM      29.88S
RICHLANDS      CLEAR     46  46 100 CALM      29.87S
ROANOKE RAPIDS NOT AVBL
ROCKY MOUNT    PTCLDY    49  47  93 SW3       29.85S
WASHINGTON     CLEAR     45  41  85 CALM      29.86F
WHITEVILLE     CLEAR     51  49  93 CALM      29.86S

$$

AMZ130-135-150-152-154-156-158-170-250-252-270-ANZ085-086-088-633-658-670-221100-
MARINE OBSERVATIONS

STATION/POSITION TIME  TEMP    WIND        PRES    WAVE   SWELL
                       AIR SEA DIR/SP/G            HT/PER HT/PER
                 (UTC) (F)     (DEG/KT/KT) (MB)    (FT/S) (FT/S)
CHESAPEAKE LIGHT 0900   48      CALM  /  6 1011.0
BUOY 44014       1000   47 48  340/  4/  6 1010.0    6/10   5/10
DUCK             1000   49 49   CALM  /  2 1009.3
2E DUCK          1000      49                N/A     4/ 9   2/11
OREGON INLET     1000   47 52     CALM     1010.5
BUOY 44095       1000      48                N/A     6/10   2/11
HATTERAS CG      1000   53 54  310/  4/  4 1011.0
DIAMOND BUOY     1000   60 76  360/  6/  8 1010.8    6/11   7/11
CAPE LOOKOUT     0900   55     300/  3/  3 1011.2
BEAUFORT LAB     1000   53 58  270/  1/  3 1010.8
30 SE NEW RIVER  1000   64 71  290/  2/  4 1012.0    4/ 9   3/ 9
5 SE WRIGHTSVILL 0900   59 59  210/  4/  4 1011.5
FRYING PAN BUOY  1000   66 66  250/  8/  8 1011.4    4/10   3/10
BUOY 41001       NOT AVBL
BUOY 41002       NOT AVBL
BUOY 41004       NOT AVBL

$$



USA.gov is the U.S. government's official web portal to all federal, state and local government web resources and services.